Location: Unspecified
(43.3830°N, 0.0000°E)
Time: 14:42:38
(UTC+00:00)

Vanguard 2 - Pass Details

Date: 27 June 2019
Orbit: 553 x 2938 km, 32.9° (Epoch: 20 July)

Event Time Altitude Azimuth Distance (km) Brightness Sun altitude
Rises 09:20:20 0° 254° (WSW) 3,102 10.3 51.1°
Reaches altitude 10° 09:22:35 10° 243° (WSW) 2,367 9.9 51.5°
Maximum altitude 09:27:29 32° 181° (S) 1,703 9.9 52.3°
Drops below altitude 10° 09:34:50 10° 123° (ESE) 3,605 11.8 53.6°
Sets 09:39:08 0° 115° (ESE) 5,028 12.3 54.3°
